IRIDIUM 170 (43930 NORAD) Tracking and Keplerian Element Data

This shows tracking and keplerian element data for the satellite.

Feedback or suggestion? Click here.




ElementValue
Catalog43930
NameIRIDIUM 170
Epoch Orbit89
Epoch Day17.76985139
Epoch Year2019
RAAN44.996
Inclination86.6783
Eccentricity0.0012369
Argument of Perigee187.4575
Mean Anonmoly224.3381
Mean Motion14.83452349
Decay Rate-5.2E-07
L11 43930U 19002J 19017.76985139 -.00000052 00000-0 -96622-5 0 9996
L22 43930 86.6783 44.9960 0012369 187.4575 224.3381 14.83452349 892

Live tracking and technical data element details for IRIDIUM 170 (NORAD 43930). IRIDIUM 170 can be tracked NOW for your location showing map with azimuth and elevation plus other details from your city location.

Track the satellite on the map from your city or location and see movement details for azimuth, elevation, latitude, longitude, range, height, and movement on the map or in text.







IsCatalogInMostPopularTable: catalog: 43930, numindb: 10
Update: records affected: 1



GetName: 43930 IRIDIUM 170

Hit Count: updated at: Fri, 18 Jan 2019 22:33:00 GMT